Wind_Speed
34 34 34 34 33 32 32 31 30 28 28 26 24 23 21 20 19 18 16 16 15 14 13 13 14 13 14 14 13 13 12 13 12 12 13 12 12 12 13 14 14 15 14 13
34 33 33 33 33 32 31 30 29 29 27 26 25 23 22 21 20 19 18 17 17 16 15 15 14 14 14 14 14 13 13 13 13 13 13 13 13 13 14 15 15 15 14 14
34 33 33 34 32 31 31 30 29 28 26 26 24 23 22 22 21 20 19 19 18 17 16 16 16 16 15 14 14 14 14 14 14 15 15 15 15 15 15 16 16 15 16 16
34 34 35 33 32 31 30 29 28 27 26 25 23 23 22 21 20 20 19 19 19 18 18 18 17 16 16 15 15 15 15 15 16 16 16 16 17 16 17 17 17 17 17 17
34 34 34 34 33 31 30 28 27 26 26 25 24 24 22 20 20 20 21 20 20 20 20 18 17 16 16 16 16 16 16 16 17 17 17 17 17 17 17 18 18 18 18 18
34 34 35 34 33 31 30 28 26 25 24 25 24 24 22 21 20 20 20 20 20 20 18 18 17 17 16 17 17 17 17 17 17 17 17 18 18 18 18 19 19 19 18 18
32 33 34 33 32 31 30 28 26 24 24 24 24 22 21 21 21 21 20 20 19 19 18 17 18 18 17 17 18 18 17 17 17 18 18 18 18 18 19 19 18 18 19 19
31 32 32 32 32 31 29 27 26 25 24 23 23 22 21 22 22 21 21 20 19 19 18 18 18 18 18 19 18 18 18 18 18 18 18 19 19 19 19 19 19 19 19 20
30 30 30 30 31 31 29 28 27 26 25 23 23 22 22 22 22 21 19 19 19 19 19 19 19 19 19 19 19 19 19 18 18 18 19 20 20 20 20 20 20 20 20 21
29 29 28 29 30 30 29 29 28 27 26 24 23 23 23 23 23 22 21 21 20 20 20 20 20 21 21 21 20 20 20 19 19 19 19 20 20 20 20 20 20 20 21 22
30 29 28 28 28 29 29 29 29 29 28 27 26 26 25 24 23 22 22 21 21 21 21 21 21 21 21 21 20 20 20 20 20 19 19 20 20 20 20 20 20 20 21 22
31 30 29 29 29 29 29 29 29 30 29 29 28 27 25 24 23 22 22 22 22 22 22 22 21 21 20 20 20 20 20 20 19 19 19 20 20 20 20 20 20 20 21 22
30 29 28 28 29 30 30 30 30 30 30 29 29 28 26 25 24 24 23 23 22 22 21 21 20 20 20 20 20 20 20 20 20 20 20 20 20 20 20 20 21 21 22 22
30 29 28 28 28 29 30 30 30 29 29 29 29 29 28 27 25 24 23 22 21 21 21 21 21 20 20 20 20 20 20 20 20 20 20 20 20 20 20 21 22 22 22 23
29 28 28 28 28 28 29 29 29 28 28 28 29 29 27 26 25 24 23 22 21 21 21 21 21 20 21 21 20 20 20 20 20 20 20 20 20 21 21 22 22 22 23 24
29 28 27 27 27 27 27 28 28 27 27 27 28 28 26 25 24 24 22 22 21 21 21 21 21 21 21 21 20 20 20 20 21 20 20 20 20 21 22 23 23 23 24 25
29 28 27 27 26 27 28 28 28 27 27 25 25 26 25 24 24 23 22 22 21 21 21 21 21 21 21 21 21 21 20 21 21 20 20 20 21 22 22 23 23 24 24 25
26 25 25 26 25 25 25 26 26 25 25 25 24 23 23 23 23 22 22 22 22 21 21 21 21 21 21 21 21 21 21 21 20 20 20 21 22 22 23 23 23 24 24 25
25 26 26 26 26 26 25 24 25 25 24 24 24 24 23 22 22 22 22 22 22 21 21 21 21 21 21 21 20 20 20 20 20 20 21 21 22 22 23 23 24 24 25 27
25 26 26 26 26 25 25 24 24 24 25 25 24 24 24 24 23 23 22 22 21 21 21 20 20 20 20 20 19 20 20 20 20 20 21 21 22 22 23 24 25 26 27 28
23 24 25 26 26 26 25 25 25 24 24 24 24 23 24 24 23 22 21 21 20 20 19 19 18 19 19 19 20 20 20 20 20 20 21 21 22 22 23 24 25 27 28 29
22 23 23 23 24 26 25 25 25 24 24 23 23 22 22 23 22 22 21 21 20 20 19 19 19 19 18 19 19 20 20 20 20 20 21 21 22 23 25 26 27 27 28 28
21 21 22 23 23 24 24 25 24 24 24 23 23 22 22 22 21 21 21 20 20 20 20 19 19 18 18 19 19 20 20 19 19 20 20 22 23 24 25 25 26 27 27 27
21 21 22 23 24 24 25 25 24 23 23 23 23 23 23 22 21 21 21 20 20 19 19 19 19 20 20 20 19 19 19 19 20 20 22 22 23 23 24 25 26 27 27 27
21 21 21 22 23 24 24 24 23 23 23 23 24 23 23 22 22 21 20 20 19 19 20 20 20 20 19 19 20 19 19 19 20 21 21 21 22 22 23 24 26 26 27 27
20 21 21 22 22 23 23 23 23 22 22 23 23 23 23 23 22 22 21 20 20 20 20 20 20 20 20 20 19 19 19 20 21 21 22 22 23 24 25 25 26 27 27 27
19 20 20 20 21 21 21 22 22 22 21 20 21 22 23 22 22 22 21 20 20 19 19 19 19 20 19 19 19 20 20 20 21 21 22 22 23 24 25 26 27 27 27 27
Wind_Direction
217 219 222 225 227 229 234 237 238 239 239 240 243 248 250 253 257 258 263 269 273 273 277 291 295 290 298 298 300 295 295 295 294 295 294 293 295 296 295 298 298 301 299 296
215 217 220 223 225 228 232 234 236 237 237 238 243 246 247 251 255 257 261 268 274 276 280 286 292 292 293 295 299 298 296 291 289 290 290 291 294 296 296 297 297 297 293 292
215 217 221 223 224 227 231 235 238 239 239 240 241 243 246 250 254 259 263 269 273 276 279 282 285 286 286 290 295 295 294 292 290 289 288 289 290 292 293 292 291 293 290 290
217 218 222 224 225 227 231 233 236 238 238 240 241 241 243 247 252 258 263 269 272 274 276 280 280 280 280 284 288 288 289 289 289 287 286 286 288 288 287 289 290 291 290 292
219 221 224 224 225 227 230 232 234 237 238 239 240 241 242 245 254 259 263 268 268 271 275 274 274 275 278 280 283 286 285 285 287 288 286 286 286 286 287 287 289 290 292 292
220 222 224 225 226 228 230 233 235 237 238 238 241 243 244 248 253 259 263 268 268 270 269 269 272 272 275 278 281 283 284 285 286 287 286 285 286 287 286 287 289 289 292 294
221 223 225 226 227 229 231 232 234 237 238 239 242 244 244 247 252 259 264 266 265 264 264 268 272 274 277 281 282 282 282 283 285 286 287 288 289 289 288 289 289 290 294 296
223 225 226 227 227 228 231 231 234 237 239 240 240 241 241 245 251 258 263 265 264 263 263 268 272 276 279 283 284 283 281 282 285 287 287 289 290 290 289 291 290 291 293 295
226 228 229 228 228 229 230 231 233 237 238 237 239 240 243 247 253 255 258 261 264 263 266 271 275 278 281 283 285 283 279 281 284 286 289 290 290 291 291 292 292 294 295 296
228 229 231 231 230 231 230 230 231 233 235 237 239 241 244 248 253 255 258 261 265 266 270 273 276 278 281 282 283 282 280 282 283 285 287 290 290 291 291 292 292 293 295 296
230 231 232 232 231 232 232 231 231 232 234 237 240 242 244 248 253 256 258 262 265 268 273 274 276 277 279 281 282 283 280 282 283 284 287 289 291 292 292 294 294 295 297 299
233 233 233 231 231 232 233 234 233 234 234 236 239 240 243 248 252 255 256 261 265 269 272 273 274 276 279 280 281 282 281 280 281 284 287 289 290 290 293 297 299 299 299 300
231 231 232 231 232 232 233 233 233 233 235 238 241 242 244 247 250 253 258 262 263 266 269 270 273 276 279 280 280 282 281 280 281 284 286 287 290 292 294 297 298 298 298 299
229 229 229 229 230 230 230 232 233 234 236 239 242 242 243 247 249 252 257 261 261 264 267 270 273 275 278 281 282 283 283 283 283 285 287 288 290 292 295 297 297 298 299 300
229 228 228 229 231 231 231 232 234 237 239 241 242 241 242 245 248 252 257 260 262 265 268 270 272 274 277 279 281 282 284 286 287 288 291 292 292 294 295 296 297 298 300 302
227 226 227 229 230 231 233 234 236 240 242 242 240 239 240 244 247 250 255 259 262 265 268 270 271 273 275 277 280 282 284 285 286 287 290 292 294 295 297 297 298 300 302 304
227 226 227 228 231 235 237 238 238 240 240 240 238 236 238 241 245 250 254 257 260 264 268 269 272 274 274 276 278 280 282 283 283 285 287 290 293 295 296 297 299 301 303 304
226 227 228 229 231 233 234 235 236 237 238 235 235 236 238 241 246 250 252 256 260 264 267 269 272 275 275 275 276 278 280 281 282 283 286 289 292 294 296 298 299 302 304 305
227 228 229 231 233 233 233 233 233 234 234 234 234 237 241 244 247 251 254 258 262 266 268 270 272 275 275 274 275 277 280 280 281 283 287 289 291 294 296 298 299 302 303 305
228 230 230 231 231 232 231 230 230 230 231 232 236 240 244 247 250 253 255 259 262 265 268 269 271 274 274 271 272 276 278 281 283 285 288 290 292 294 297 298 299 300 301 303
230 230 228 229 229 228 228 228 229 230 233 235 238 242 244 247 250 252 254 256 259 262 265 266 268 271 272 272 274 277 279 281 283 284 286 287 290 293 296 298 298 300 302 303
230 229 228 227 227 227 228 231 233 235 237 238 240 243 245 246 247 250 252 253 255 258 261 264 266 267 270 272 275 277 279 281 281 283 285 287 289 293 295 296 297 300 303 305
228 228 227 227 228 229 231 233 234 235 236 237 239 241 242 243 245 248 250 251 254 257 259 261 264 267 270 274 277 279 281 279 280 284 287 290 292 295 295 295 297 301 304 306
228 228 228 229 230 232 233 234 234 235 235 236 238 240 241 242 244 248 249 251 253 256 258 261 265 268 271 275 278 279 280 280 283 286 290 292 294 296 297 299 302 304 305 306
226 227 229 230 230 231 231 232 233 233 233 234 237 238 238 240 242 243 245 248 252 257 260 262 264 266 268 272 274 277 279 282 284 286 289 292 294 297 300 302 303 305 306 308
225 225 225 225 226 227 228 229 230 230 232 234 236 237 236 238 240 242 245 250 255 258 260 261 263 266 267 270 273 277 280 283 284 287 289 292 296 299 301 302 304 305 307 308
222 222 222 223 224 224 224 226 227 228 231 233 234 235 235 237 240 243 247 251 255 257 260 262 265 267 269 270 273 278 283 286 288 290 293 296 299 301 303 304 306 307 308 309
Height
5831 5837 5842 5847 5852 5856 5860 5864 5868 5873 5877 5881 5883 5886 5888 5890 5891 5892 5893 5894 5894 5894 5894 5893 5892 5891 5889 5889 5888 5887 5886 5885 5884 5883 5882 5881 5880 5879 5878 5877 5876 5875 5873 5873
5826 5831 5837 5841 5846 5851 5855 5859 5863 5867 5872 5876 5878 5881 5883 5884 5886 5888 5889 5890 5890 5890 5890 5890 5889 5888 5887 5887 5886 5885 5884 5883 5882 5881 5880 5878 5878 5877 5876 5875 5873 5872 5871 5870
5822 5827 5831 5836 5841 5846 5850 5854 5859 5862 5868 5871 5874 5876 5878 5880 5881 5883 5884 5885 5885 5886 5886 5886 5886 5885 5885 5884 5883 5882 5881 5880 5879 5878 5877 5876 5875 5874 5873 5871 5870 5869 5868 5867
5817 5823 5827 5834 5837 5841 5845 5850 5854 5858 5862 5866 5869 5871 5873 5875 5877 5878 5879 5880 5881 5881 5881 5881 5881 5881 5881 5881 5880 5879 5878 5877 5876 5875 5874 5873 5872 5870 5869 5868 5867 5865 5864 5863
5812 5817 5822 5828 5832 5836 5841 5845 5849 5853 5856 5860 5863 5865 5868 5871 5872 5874 5875 5875 5876 5877 5877 5877 5877 5877 5877 5877 5876 5875 5874 5873 5872 5871 5870 5869 5868 5866 5865 5863 5862 5861 5860 5858
5807 5812 5817 5823 5827 5832 5837 5840 5845 5848 5851 5854 5858 5861 5865 5866 5867 5869 5870 5870 5871 5871 5872 5872 5873 5873 5873 5872 5872 5871 5870 5869 5868 5866 5865 5864 5863 5862 5860 5858 5857 5856 5855 5854
5802 5807 5812 5818 5822 5827 5833 5837 5840 5843 5846 5850 5853 5857 5860 5861 5862 5863 5864 5865 5866 5867 5867 5867 5868 5868 5868 5868 5867 5866 5866 5865 5864 5862 5861 5860 5859 5857 5856 5854 5853 5852 5850 5849
5798 5803 5809 5812 5817 5823 5827 5831 5834 5838 5841 5845 5848 5851 5854 5855 5857 5858 5859 5860 5861 5862 5863 5863 5864 5864 5864 5863 5863 5862 5861 5860 5859 5858 5857 5856 5854 5852 5851 5850 5848 5846 5845 5844
5795 5800 5803 5807 5812 5816 5821 5825 5829 5833 5837 5840 5843 5846 5848 5851 5852 5853 5854 5855 5856 5857 5858 5859 5859 5859 5859 5859 5858 5857 5856 5856 5854 5853 5852 5851 5849 5848 5847 5845 5843 5842 5840 5838
5789 5794 5798 5802 5807 5810 5815 5819 5823 5827 5831 5834 5838 5841 5843 5846 5847 5848 5849 5850 5852 5853 5853 5854 5854 5854 5854 5854 5853 5852 5851 5850 5849 5848 5847 5846 5844 5843 5842 5840 5838 5837 5835 5833
5784 5788 5793 5797 5801 5805 5809 5814 5818 5821 5825 5829 5832 5835 5838 5840 5842 5843 5844 5845 5846 5848 5848 5849 5849 5849 5848 5848 5847 5847 5846 5845 5844 5843 5842 5841 5840 5838 5837 5835 5833 5832 5830 5828
5778 5783 5787 5792 5796 5800 5804 5808 5812 5816 5819 5823 5826 5829 5832 5834 5836 5838 5839 5840 5841 5842 5843 5843 5843 5843 5842 5842 5842 5841 5841 5840 5839 5838 5837 5836 5835 5833 5832 5830 5828 5826 5824 5822
5772 5777 5781 5786 5790 5794 5798 5802 5805 5809 5813 5817 5820 5823 5826 5828 5830 5832 5833 5834 5835 5836 5837 5838 5838 5838 5837 5837 5837 5836 5835 5834 5833 5832 5831 5830 5829 5828 5826 5825 5823 5821 5819 5817
5766 5771 5775 5780 5784 5787 5791 5795 5799 5802 5807 5810 5813 5816 5819 5822 5824 5826 5827 5828 5829 5830 5831 5832 5832 5832 5832 5832 5831 5830 5829 5828 5827 5826 5826 5825 5824 5823 5821 5819 5817 5815 5813 5811
5760 5765 5770 5774 5778 5782 5785 5789 5793 5797 5800 5803 5807 5810 5812 5815 5817 5820 5821 5822 5824 5825 5826 5826 5826 5826 5826 5826 5826 5825 5824 5823 5822 5821 5820 5819 5818 5817 5815 5813 5811 5809 5807 5804
5754 5759 5764 5768 5772 5776 5779 5783 5787 5791 5794 5797 5800 5803 5806 5808 5811 5813 5815 5816 5818 5819 5819 5820 5820 5820 5820 5820 5820 5819 5818 5817 5817 5815 5814 5813 5812 5811 5809 5807 5805 5803 5801 5798
5749 5753 5758 5762 5766 5770 5773 5777 5781 5784 5787 5790 5793 5796 5799 5802 5805 5807 5809 5810 5811 5812 5813 5814 5814 5814 5814 5814 5814 5813 5812 5811 5811 5809 5809 5808 5806 5805 5803 5801 5799 5796 5794 5791
5743 5747 5752 5756 5760 5764 5768 5771 5774 5777 5781 5784 5787 5790 5793 5796 5799 5801 5803 5804 5805 5806 5807 5807 5808 5808 5808 5808 5807 5807 5806 5805 5804 5804 5803 5802 5800 5798 5796 5795 5792 5790 5787 5784
5738 5742 5747 5751 5755 5758 5762 5765 5768 5772 5775 5778 5782 5785 5788 5790 5793 5795 5797 5798 5799 5800 5800 5801 5801 5801 5801 5801 5801 5800 5800 5799 5798 5798 5797 5795 5794 5792 5790 5788 5786 5783 5781 5778
5733 5737 5741 5745 5749 5752 5756 5760 5763 5766 5770 5773 5776 5779 5782 5784 5787 5788 5790 5791 5792 5793 5794 5794 5794 5794 5795 5795 5794 5794 5794 5793 5792 5791 5790 5789 5787 5785 5784 5781 5779 5777 5774 5771
5728 5732 5735 5739 5743 5747 5750 5754 5757 5761 5764 5767 5770 5773 5776 5778 5780 5782 5783 5785 5786 5787 5787 5788 5788 5788 5788 5788 5788 5788 5787 5787 5786 5785 5784 5783 5781 5779 5777 5775 5773 5770 5767 5764
5723 5726 5730 5733 5737 5741 5745 5748 5752 5755 5758 5761 5764 5767 5769 5772 5774 5775 5777 5778 5780 5781 5781 5782 5782 5782 5783 5783 5782 5782 5781 5781 5780 5779 5778 5776 5775 5773 5771 5768 5766 5763 5760 5757
5718 5721 5725 5728 5732 5735 5739 5742 5745 5749 5752 5755 5758 5760 5763 5765 5767 5769 5771 5772 5773 5774 5775 5776 5776 5777 5777 5777 5776 5776 5775 5775 5774 5773 5771 5770 5768 5766 5764 5762 5759 5756 5753 5750
5713 5716 5720 5723 5726 5729 5733 5736 5739 5742 5746 5749 5752 5754 5757 5759 5761 5763 5765 5766 5767 5768 5769 5770 5770 5771 5771 5771 5770 5770 5769 5769 5768 5766 5765 5763 5761 5759 5757 5755 5752 5749 5746 5743
5708 5711 5714 5717 5720 5723 5726 5730 5733 5736 5739 5743 5746 5748 5751 5753 5755 5757 5758 5760 5761 5763 5763 5764 5764 5765 5765 5764 5764 5764 5763 5763 5762 5760 5759 5757 5755 5753 5751 5748 5746 5743 5739 5736
5703 5706 5709 5712 5715 5718 5721 5724 5728 5731 5734 5737 5740 5742 5745 5747 5749 5751 5753 5754 5756 5756 5757 5758 5758 5759 5758 5758 5758 5758 5757 5756 5755 5754 5753 5751 5749 5747 5744 5742 5739 5736 5733 5730
5699 5702 5705 5708 5711 5713 5716 5720 5723 5726 5729 5732 5735 5737 5739 5741 5744 5746 5747 5749 5750 5751 5751 5752 5752 5752 5752 5753 5752 5752 5751 5750 5749 5748 5746 5744 5742 5740 5738 5735 5732 5729 5726 5723